Year,Month,Day,Hour,Minute,Value (Times are PST for temperature in C)
2020,06,16,00,00,9.70
2020,06,16,00,01,9.70
2020,06,16,00,02,9.70
2020,06,16,00,03,9.60
2020,06,16,00,04,9.60
2020,06,16,00,05,9.60
2020,06,16,00,06,9.60
2020,06,16,00,07,9.60
2020,06,16,00,08,9.60
2020,06,16,00,09,9.50
2020,06,16,00,10,9.50
2020,06,16,00,11,9.50
2020,06,16,00,12,9.50
2020,06,16,00,13,9.60
2020,06,16,00,14,9.60
2020,06,16,00,15,9.60
2020,06,16,00,16,9.60
2020,06,16,00,17,9.60
2020,06,16,00,18,9.60
2020,06,16,00,19,9.60
2020,06,16,00,20,9.60
2020,06,16,00,21,9.60
2020,06,16,00,22,9.60
2020,06,16,00,23,9.60
2020,06,16,00,24,9.60
2020,06,16,00,25,9.60
2020,06,16,00,26,9.60
2020,06,16,00,27,9.60
2020,06,16,00,28,9.60
2020,06,16,00,29,9.60
2020,06,16,00,30,9.70
2020,06,16,00,31,9.70
2020,06,16,00,32,9.70
2020,06,16,00,33,9.70
2020,06,16,00,34,9.70
2020,06,16,00,35,9.70
2020,06,16,00,36,9.70
2020,06,16,00,37,9.70
2020,06,16,00,38,9.70
2020,06,16,00,39,9.70
2020,06,16,00,40,9.70
2020,06,16,00,41,9.70
2020,06,16,00,42,9.70
2020,06,16,00,43,9.80
2020,06,16,00,44,9.70
2020,06,16,00,45,9.70
2020,06,16,00,46,9.70
2020,06,16,00,47,9.70
2020,06,16,00,48,9.70
2020,06,16,00,49,9.70
2020,06,16,00,50,9.70
2020,06,16,00,51,9.70
2020,06,16,00,52,9.70
2020,06,16,00,53,9.70
2020,06,16,00,54,9.70
2020,06,16,00,55,9.70
2020,06,16,00,56,9.70
2020,06,16,00,57,9.70
2020,06,16,00,58,9.70
2020,06,16,00,59,9.70
2020,06,16,01,00,9.80
2020,06,16,01,01,9.80
2020,06,16,01,02,9.80
2020,06,16,01,03,9.80
2020,06,16,01,04,9.80
2020,06,16,01,05,9.80
2020,06,16,01,06,9.80
2020,06,16,01,07,9.80
2020,06,16,01,08,9.80
2020,06,16,01,09,9.80
2020,06,16,01,10,9.80
2020,06,16,01,11,9.80
2020,06,16,01,12,9.90
2020,06,16,01,13,9.90
2020,06,16,01,14,9.90
2020,06,16,01,15,9.90
2020,06,16,01,16,9.90
2020,06,16,01,17,9.90
2020,06,16,01,18,9.90
2020,06,16,01,19,9.90
2020,06,16,01,20,9.90
2020,06,16,01,21,9.90
2020,06,16,01,22,9.90
2020,06,16,01,23,9.90
2020,06,16,01,24,9.90
2020,06,16,01,25,9.90
2020,06,16,01,26,9.90
2020,06,16,01,27,9.90
2020,06,16,01,28,9.90
2020,06,16,01,29,9.90
2020,06,16,01,30,9.90
2020,06,16,01,31,9.90
2020,06,16,01,32,10.00
2020,06,16,01,33,10.00
2020,06,16,01,34,10.00
2020,06,16,01,35,10.00
2020,06,16,01,36,9.90
2020,06,16,01,37,9.90
2020,06,16,01,38,9.90
2020,06,16,01,39,9.90
2020,06,16,01,40,9.90
2020,06,16,01,41,9.90
2020,06,16,01,42,9.90
2020,06,16,01,43,9.90
2020,06,16,01,44,9.90
2020,06,16,01,45,9.90
2020,06,16,01,46,9.90
2020,06,16,01,47,9.90
2020,06,16,01,48,10.00
2020,06,16,01,49,10.00
2020,06,16,01,50,10.00
2020,06,16,01,51,10.00
2020,06,16,01,52,10.00
2020,06,16,01,53,10.00
2020,06,16,01,54,10.00
2020,06,16,01,55,10.00
2020,06,16,01,56,10.00
2020,06,16,01,57,10.00
2020,06,16,01,58,10.10
2020,06,16,01,59,10.10
2020,06,16,02,00,10.10
2020,06,16,02,01,10.10
2020,06,16,02,02,10.10
2020,06,16,02,03,10.10
2020,06,16,02,04,10.10
2020,06,16,02,05,10.10
2020,06,16,02,06,10.10
2020,06,16,02,07,10.10
2020,06,16,02,08,10.10
2020,06,16,02,09,10.10
2020,06,16,02,10,10.20
2020,06,16,02,11,10.20
2020,06,16,02,12,10.20
2020,06,16,02,13,10.20
2020,06,16,02,14,10.20
2020,06,16,02,15,10.30
2020,06,16,02,16,10.30
2020,06,16,02,17,10.30
2020,06,16,02,18,10.30
2020,06,16,02,19,10.40
2020,06,16,02,20,10.40
2020,06,16,02,21,10.40
2020,06,16,02,22,10.40
2020,06,16,02,23,10.40
2020,06,16,02,24,10.40
2020,06,16,02,25,10.50
2020,06,16,02,26,10.40
2020,06,16,02,27,10.40
2020,06,16,02,28,10.50
2020,06,16,02,29,10.50
2020,06,16,02,30,10.50
2020,06,16,02,31,10.60
2020,06,16,02,32,10.60
2020,06,16,02,33,10.60
2020,06,16,02,34,10.60
2020,06,16,02,35,10.60
2020,06,16,02,36,10.60
2020,06,16,02,37,10.70
2020,06,16,02,38,10.70
2020,06,16,02,39,10.70
2020,06,16,02,40,10.70
2020,06,16,02,41,10.70
2020,06,16,02,42,10.70
2020,06,16,02,43,10.80
2020,06,16,02,44,10.70
2020,06,16,02,45,10.70
2020,06,16,02,46,10.70
2020,06,16,02,47,10.70
2020,06,16,02,48,10.70
2020,06,16,02,49,10.70
2020,06,16,02,50,10.70
2020,06,16,02,51,10.70
2020,06,16,02,52,10.70
2020,06,16,02,53,10.70
2020,06,16,02,54,10.70
2020,06,16,02,55,10.70
2020,06,16,02,56,10.70
2020,06,16,02,57,10.70
2020,06,16,02,58,10.70
2020,06,16,02,59,10.70
2020,06,16,03,00,10.70
2020,06,16,03,01,10.70
2020,06,16,03,02,10.70
2020,06,16,03,03,10.60
2020,06,16,03,04,10.60
2020,06,16,03,05,10.60
2020,06,16,03,06,10.60
2020,06,16,03,07,10.60
2020,06,16,03,08,10.60
2020,06,16,03,09,10.60
2020,06,16,03,10,10.60
2020,06,16,03,11,10.60
2020,06,16,03,12,10.60
2020,06,16,03,13,10.60
2020,06,16,03,14,10.60
2020,06,16,03,15,10.60
2020,06,16,03,16,10.60
2020,06,16,03,17,10.60
2020,06,16,03,18,10.60
2020,06,16,03,19,10.60
2020,06,16,03,20,10.60
2020,06,16,03,21,10.60
2020,06,16,03,22,10.60
2020,06,16,03,23,10.60
2020,06,16,03,24,10.60
2020,06,16,03,25,10.60
2020,06,16,03,26,10.60
2020,06,16,03,27,10.60
2020,06,16,03,28,10.60
2020,06,16,03,29,10.70
2020,06,16,03,30,10.60
2020,06,16,03,31,10.60
2020,06,16,03,32,10.60
2020,06,16,03,33,10.60
2020,06,16,03,34,10.60
2020,06,16,03,35,10.60
2020,06,16,03,36,10.60
2020,06,16,03,37,10.60
2020,06,16,03,38,10.60
2020,06,16,03,39,10.60
2020,06,16,03,40,10.60
2020,06,16,03,41,10.60
2020,06,16,03,42,10.60
2020,06,16,03,43,10.50
2020,06,16,03,44,10.50
2020,06,16,03,45,10.50
2020,06,16,03,46,10.50
2020,06,16,03,47,10.50
2020,06,16,03,48,10.50
2020,06,16,03,49,10.50
2020,06,16,03,50,10.50
2020,06,16,03,51,10.50
2020,06,16,03,52,10.50
2020,06,16,03,53,10.50
2020,06,16,03,54,10.50
2020,06,16,03,55,10.50
2020,06,16,03,56,10.50
2020,06,16,03,57,10.40
2020,06,16,03,58,10.40
2020,06,16,03,59,10.50
2020,06,16,04,00,10.40
2020,06,16,04,01,10.40
2020,06,16,04,02,10.40
2020,06,16,04,03,10.40
2020,06,16,04,04,10.40
2020,06,16,04,05,10.40
2020,06,16,04,06,10.40
2020,06,16,04,07,10.40
2020,06,16,04,08,10.40
2020,06,16,04,09,10.40
2020,06,16,04,10,10.40
2020,06,16,04,11,10.40
2020,06,16,04,12,10.40
2020,06,16,04,13,10.40
2020,06,16,04,14,10.30
2020,06,16,04,15,10.30
2020,06,16,04,16,10.30
2020,06,16,04,17,10.30
2020,06,16,04,18,10.30
2020,06,16,04,19,10.30
2020,06,16,04,20,10.30
2020,06,16,04,21,10.30
2020,06,16,04,22,10.30
2020,06,16,04,23,10.30
2020,06,16,04,24,10.30
2020,06,16,04,25,10.40
2020,06,16,04,26,10.40
2020,06,16,04,27,10.40
2020,06,16,04,28,10.40
2020,06,16,04,29,10.30
2020,06,16,04,30,10.30
2020,06,16,04,31,10.30
2020,06,16,04,32,10.30
2020,06,16,04,33,10.30
2020,06,16,04,34,10.30
2020,06,16,04,35,10.30
2020,06,16,04,36,10.30
2020,06,16,04,37,10.30
2020,06,16,04,38,10.40
2020,06,16,04,39,10.40
2020,06,16,04,40,10.40
2020,06,16,04,41,10.40
2020,06,16,04,42,10.40
2020,06,16,04,43,10.40
2020,06,16,04,44,10.40
2020,06,16,04,45,10.40
2020,06,16,04,46,10.30
2020,06,16,04,47,10.30
2020,06,16,04,48,10.30
2020,06,16,04,49,10.30
2020,06,16,04,50,10.30
2020,06,16,04,51,10.30
2020,06,16,04,52,10.30
2020,06,16,04,53,10.30
2020,06,16,04,54,10.20
2020,06,16,04,55,10.20
2020,06,16,04,56,10.20
2020,06,16,04,57,10.20
2020,06,16,04,58,10.10
2020,06,16,04,59,10.10
2020,06,16,05,00,10.10
2020,06,16,05,01,10.10
2020,06,16,05,02,10.00
2020,06,16,05,03,10.00
2020,06,16,05,04,10.00
2020,06,16,05,05,10.00
2020,06,16,05,06,9.90
2020,06,16,05,07,9.90
2020,06,16,05,08,9.90
2020,06,16,05,09,9.90
2020,06,16,05,10,9.90
2020,06,16,05,11,9.90
2020,06,16,05,12,9.90
2020,06,16,05,13,9.80
2020,06,16,05,14,9.80
2020,06,16,05,15,9.80
2020,06,16,05,16,9.80
2020,06,16,05,17,9.80
2020,06,16,05,18,9.80
2020,06,16,05,19,9.80
2020,06,16,05,20,9.80
2020,06,16,05,21,9.80
2020,06,16,05,22,9.80
2020,06,16,05,23,9.80
2020,06,16,05,24,9.80
2020,06,16,05,25,9.80
2020,06,16,05,26,9.80
2020,06,16,05,27,9.80
2020,06,16,05,28,9.80
2020,06,16,05,29,9.80
2020,06,16,05,30,9.80
2020,06,16,05,31,9.80
2020,06,16,05,32,9.80
2020,06,16,05,33,9.70
2020,06,16,05,34,9.70
2020,06,16,05,35,9.70
2020,06,16,05,36,9.70
2020,06,16,05,37,9.70
2020,06,16,05,38,9.70
2020,06,16,05,39,9.70
2020,06,16,05,40,9.70
2020,06,16,05,41,9.70
2020,06,16,05,42,9.70
2020,06,16,05,43,9.70
2020,06,16,05,44,9.70
2020,06,16,05,45,9.60
2020,06,16,05,46,9.60
2020,06,16,05,47,9.60
2020,06,16,05,48,9.60
2020,06,16,05,49,9.60
2020,06,16,05,50,9.50
2020,06,16,05,51,9.50
2020,06,16,05,52,9.50
2020,06,16,05,53,9.50
2020,06,16,05,54,9.40
2020,06,16,05,55,9.40
2020,06,16,05,56,9.40
2020,06,16,05,57,9.40
2020,06,16,05,58,9.40
2020,06,16,05,59,9.40
2020,06,16,06,00,9.40
2020,06,16,06,01,9.40
2020,06,16,06,02,9.40
2020,06,16,06,03,9.40
2020,06,16,06,04,9.40
2020,06,16,06,05,9.40
2020,06,16,06,06,9.40
2020,06,16,06,07,9.40
2020,06,16,06,08,9.40
2020,06,16,06,09,9.40
2020,06,16,06,10,9.40
2020,06,16,06,11,9.50
2020,06,16,06,12,9.50
2020,06,16,06,13,9.60
2020,06,16,06,14,9.60
2020,06,16,06,15,9.60
2020,06,16,06,16,9.60
2020,06,16,06,17,9.70
2020,06,16,06,18,9.70
2020,06,16,06,19,9.70
2020,06,16,06,20,9.70
2020,06,16,06,21,9.70
2020,06,16,06,22,9.80
2020,06,16,06,23,9.80
2020,06,16,06,24,9.80
2020,06,16,06,25,9.80
2020,06,16,06,26,9.80
2020,06,16,06,27,9.90
2020,06,16,06,28,9.90
2020,06,16,06,29,9.90
2020,06,16,06,30,9.90
2020,06,16,06,31,9.90
2020,06,16,06,32,9.90
2020,06,16,06,33,9.90
2020,06,16,06,34,9.90
2020,06,16,06,35,9.90
2020,06,16,06,36,10.00
2020,06,16,06,37,10.00
2020,06,16,06,38,10.00
2020,06,16,06,39,10.00
2020,06,16,06,40,10.10
2020,06,16,06,41,10.10
2020,06,16,06,42,10.10
2020,06,16,06,43,10.10
2020,06,16,06,44,10.10
2020,06,16,06,45,10.20
2020,06,16,06,46,10.20
2020,06,16,06,47,10.30
2020,06,16,06,48,10.30
2020,06,16,06,49,10.40
2020,06,16,06,50,10.40
2020,06,16,06,51,10.50
2020,06,16,06,52,10.60
2020,06,16,06,53,10.60
2020,06,16,06,54,10.60
2020,06,16,06,55,10.70
2020,06,16,06,56,10.80
2020,06,16,06,57,10.80
2020,06,16,06,58,10.80
2020,06,16,06,59,10.90
2020,06,16,07,00,10.90
2020,06,16,07,01,11.00
2020,06,16,07,02,11.00
2020,06,16,07,03,11.10
2020,06,16,07,04,11.10
2020,06,16,07,05,11.20
2020,06,16,07,06,11.20
2020,06,16,07,07,11.20
2020,06,16,07,08,11.30
2020,06,16,07,09,11.30
2020,06,16,07,10,11.40
2020,06,16,07,11,11.40
2020,06,16,07,12,11.40
2020,06,16,07,13,11.50
2020,06,16,07,14,11.50
2020,06,16,07,15,11.60
2020,06,16,07,16,11.60
2020,06,16,07,17,11.60
2020,06,16,07,18,11.60
2020,06,16,07,19,11.60
2020,06,16,07,20,11.60
2020,06,16,07,21,11.60
2020,06,16,07,22,11.60
2020,06,16,07,23,11.70
2020,06,16,07,24,11.70
2020,06,16,07,25,11.70
2020,06,16,07,26,11.70
2020,06,16,07,27,11.70
2020,06,16,07,28,11.80
2020,06,16,07,29,11.80
2020,06,16,07,30,11.90
2020,06,16,07,31,11.90
2020,06,16,07,32,11.90
2020,06,16,07,33,12.00
2020,06,16,07,34,12.00
2020,06,16,07,35,12.10
2020,06,16,07,36,12.00
2020,06,16,07,37,12.10
2020,06,16,07,38,12.10
2020,06,16,07,39,12.10
2020,06,16,07,40,12.10
2020,06,16,07,41,12.10
2020,06,16,07,42,12.10
2020,06,16,07,43,12.10
2020,06,16,07,44,12.20
2020,06,16,07,45,12.20
2020,06,16,07,46,12.20
2020,06,16,07,47,12.30
2020,06,16,07,48,12.30
2020,06,16,07,49,12.40
2020,06,16,07,50,12.40
2020,06,16,07,51,12.50
2020,06,16,07,52,12.50
2020,06,16,07,53,12.60
2020,06,16,07,54,12.70
2020,06,16,07,55,12.70
2020,06,16,07,56,12.80
2020,06,16,07,57,12.90
2020,06,16,07,58,13.00
2020,06,16,07,59,13.10
2020,06,16,08,00,13.10
2020,06,16,08,01,13.20
2020,06,16,08,02,13.20
2020,06,16,08,03,13.20
2020,06,16,08,04,13.30
2020,06,16,08,05,13.30
2020,06,16,08,06,13.30
2020,06,16,08,07,13.30
2020,06,16,08,08,13.30
2020,06,16,08,09,13.30
2020,06,16,08,10,13.30
2020,06,16,08,11,13.30
2020,06,16,08,12,13.40
2020,06,16,08,13,13.30
2020,06,16,08,14,13.40
2020,06,16,08,15,13.40
2020,06,16,08,16,13.40
2020,06,16,08,17,13.40
2020,06,16,08,18,13.40
2020,06,16,08,19,13.50
2020,06,16,08,20,13.50
2020,06,16,08,21,13.60
2020,06,16,08,22,13.60
2020,06,16,08,23,13.60
2020,06,16,08,24,13.70
2020,06,16,08,25,13.70
2020,06,16,08,26,13.80
2020,06,16,08,27,13.80
2020,06,16,08,28,13.90
2020,06,16,08,29,13.90
2020,06,16,08,30,14.00
2020,06,16,08,31,14.00
2020,06,16,08,32,14.10
2020,06,16,08,33,14.20
2020,06,16,08,34,14.20
2020,06,16,08,35,14.10
2020,06,16,08,36,14.20
2020,06,16,08,37,14.20
2020,06,16,08,38,14.20
2020,06,16,08,39,14.10
2020,06,16,08,40,14.10
2020,06,16,08,41,14.00
2020,06,16,08,42,14.00
2020,06,16,08,43,14.00
2020,06,16,08,44,14.00
2020,06,16,08,45,14.00
2020,06,16,08,46,14.10
2020,06,16,08,47,14.00
2020,06,16,08,48,14.00
2020,06,16,08,49,14.10
2020,06,16,08,50,14.20
2020,06,16,08,51,14.20
2020,06,16,08,52,14.20
2020,06,16,08,53,14.30
2020,06,16,08,54,14.50
2020,06,16,08,55,14.60
2020,06,16,08,56,14.80
2020,06,16,08,57,14.90
2020,06,16,08,58,15.00
2020,06,16,08,59,15.00
2020,06,16,09,00,14.90
2020,06,16,09,01,14.90
2020,06,16,09,02,14.80
2020,06,16,09,03,14.60
2020,06,16,09,04,14.60
2020,06,16,09,05,14.60
2020,06,16,09,06,14.60
2020,06,16,09,07,14.50
2020,06,16,09,08,14.60
2020,06,16,09,09,14.60
2020,06,16,09,10,14.60
2020,06,16,09,11,14.50
2020,06,16,09,12,14.50
2020,06,16,09,13,14.40
2020,06,16,09,14,14.30
2020,06,16,09,15,14.20
2020,06,16,09,16,14.10
2020,06,16,09,17,14.10
2020,06,16,09,18,14.10
2020,06,16,09,19,14.10
2020,06,16,09,20,14.00
2020,06,16,09,21,14.00
2020,06,16,09,22,14.00
2020,06,16,09,23,14.00
2020,06,16,09,24,13.90
2020,06,16,09,25,13.90
2020,06,16,09,26,13.90
2020,06,16,09,27,13.90
2020,06,16,09,28,13.90
2020,06,16,09,29,13.90
2020,06,16,09,30,13.90
2020,06,16,09,31,13.90
2020,06,16,09,32,13.90
2020,06,16,09,33,13.90
2020,06,16,09,34,14.00
2020,06,16,09,35,14.00
2020,06,16,09,36,14.00
2020,06,16,09,37,14.00
2020,06,16,09,38,14.00
2020,06,16,09,39,13.90
2020,06,16,09,40,13.90
2020,06,16,09,41,14.00
2020,06,16,09,42,14.00
2020,06,16,09,43,14.00
2020,06,16,09,44,14.00
2020,06,16,09,45,14.00
2020,06,16,09,46,14.00
2020,06,16,09,47,14.00
2020,06,16,09,48,14.10
2020,06,16,09,49,14.10
2020,06,16,09,50,14.10
2020,06,16,09,51,14.10
2020,06,16,09,52,14.10
2020,06,16,09,53,14.00
2020,06,16,09,54,14.00
2020,06,16,09,55,14.00
2020,06,16,09,56,14.00
2020,06,16,09,57,13.90
2020,06,16,09,58,13.90
2020,06,16,09,59,13.90
2020,06,16,10,00,13.90
2020,06,16,10,01,13.90
2020,06,16,10,02,13.80
2020,06,16,10,03,13.80
2020,06,16,10,04,13.70
2020,06,16,10,05,13.70
2020,06,16,10,06,13.70
2020,06,16,10,07,13.60
2020,06,16,10,08,13.60
2020,06,16,10,09,13.60
2020,06,16,10,10,13.70
2020,06,16,10,11,13.70
2020,06,16,10,12,13.70
2020,06,16,10,13,13.70
2020,06,16,10,14,13.70
2020,06,16,10,15,13.70
2020,06,16,10,16,13.70
2020,06,16,10,17,13.70
2020,06,16,10,18,13.70
2020,06,16,10,19,13.70
2020,06,16,10,20,13.70
2020,06,16,10,21,13.80
2020,06,16,10,22,13.80
2020,06,16,10,23,13.80
2020,06,16,10,24,13.80
2020,06,16,10,25,13.80
2020,06,16,10,26,13.80
2020,06,16,10,27,13.80
2020,06,16,10,28,13.80
2020,06,16,10,29,13.80
2020,06,16,10,30,13.90
2020,06,16,10,31,13.90
2020,06,16,10,32,14.00
2020,06,16,10,33,14.10
2020,06,16,10,34,14.10
2020,06,16,10,35,14.20
2020,06,16,10,36,14.20
2020,06,16,10,37,14.30
2020,06,16,10,38,14.30
2020,06,16,10,39,14.30
2020,06,16,10,40,14.30
2020,06,16,10,41,14.30
2020,06,16,10,42,14.30
2020,06,16,10,43,14.30
2020,06,16,10,44,14.30
2020,06,16,10,45,14.30
2020,06,16,10,46,14.40
2020,06,16,10,47,14.30
2020,06,16,10,48,14.30
2020,06,16,10,49,14.30
2020,06,16,10,50,14.30
2020,06,16,10,51,14.30
2020,06,16,10,52,14.30
2020,06,16,10,53,14.40
2020,06,16,10,54,14.60
2020,06,16,10,55,14.70
2020,06,16,10,56,14.70
2020,06,16,10,57,14.70
2020,06,16,10,58,14.70
2020,06,16,10,59,14.70
2020,06,16,11,00,14.60
2020,06,16,11,01,14.60
2020,06,16,11,02,14.60
2020,06,16,11,03,14.60
2020,06,16,11,04,14.60
2020,06,16,11,05,14.60
2020,06,16,11,06,14.70
2020,06,16,11,07,14.80
2020,06,16,11,08,14.90
2020,06,16,11,09,15.00
2020,06,16,11,10,15.10
2020,06,16,11,11,15.10
2020,06,16,11,12,15.10
2020,06,16,11,13,15.00
2020,06,16,11,14,14.90
2020,06,16,11,15,14.90
2020,06,16,11,16,14.90
2020,06,16,11,17,14.90
2020,06,16,11,18,14.90
2020,06,16,11,19,14.90
2020,06,16,11,20,14.80
2020,06,16,11,21,14.80
2020,06,16,11,22,14.70
2020,06,16,11,23,14.80
2020,06,16,11,24,14.80
2020,06,16,11,25,14.90
2020,06,16,11,26,14.90
2020,06,16,11,27,14.90
2020,06,16,11,28,14.90
2020,06,16,11,29,15.00
2020,06,16,11,30,15.10
2020,06,16,11,31,15.10
2020,06,16,11,32,15.20
2020,06,16,11,33,15.40
2020,06,16,11,34,15.50
2020,06,16,11,35,15.60
2020,06,16,11,36,15.60
2020,06,16,11,37,15.70
2020,06,16,11,38,15.80
2020,06,16,11,39,15.80
2020,06,16,11,40,15.90
2020,06,16,11,41,16.00
2020,06,16,11,42,15.90
2020,06,16,11,43,15.90
2020,06,16,11,44,15.90
2020,06,16,11,45,15.80
2020,06,16,11,46,15.80
2020,06,16,11,47,15.80
2020,06,16,11,48,15.80
2020,06,16,11,49,15.80
2020,06,16,11,50,15.80
2020,06,16,11,51,15.80
2020,06,16,11,52,15.90
2020,06,16,11,53,16.00
2020,06,16,11,54,16.10
2020,06,16,11,55,16.10
2020,06,16,11,56,16.10
2020,06,16,11,57,16.00
2020,06,16,11,58,15.90
2020,06,16,11,59,15.90
2020,06,16,12,00,15.80
2020,06,16,12,01,15.80
2020,06,16,12,02,15.90
2020,06,16,12,03,15.90
2020,06,16,12,04,15.90
2020,06,16,12,05,15.80
2020,06,16,12,06,15.80
2020,06,16,12,07,15.80
2020,06,16,12,08,15.90
2020,06,16,12,09,16.00
2020,06,16,12,10,16.10
2020,06,16,12,11,16.20
2020,06,16,12,12,16.40
2020,06,16,12,13,16.40
2020,06,16,12,14,16.40
2020,06,16,12,15,16.30
2020,06,16,12,16,16.30
2020,06,16,12,17,16.20
2020,06,16,12,18,16.10
2020,06,16,12,19,16.10
2020,06,16,12,20,16.20
2020,06,16,12,21,16.10
2020,06,16,12,22,16.10
2020,06,16,12,23,16.00
2020,06,16,12,24,15.90
2020,06,16,12,25,15.90
2020,06,16,12,26,15.90
2020,06,16,12,27,15.90
2020,06,16,12,28,15.80
2020,06,16,12,29,15.90
2020,06,16,12,30,15.90
2020,06,16,12,31,15.90
2020,06,16,12,32,16.00
2020,06,16,12,33,16.10
2020,06,16,12,34,16.10
2020,06,16,12,35,16.10
2020,06,16,12,36,16.10
2020,06,16,12,37,16.20
2020,06,16,12,38,16.30
2020,06,16,12,39,16.50
2020,06,16,12,40,16.60
2020,06,16,12,41,16.70
2020,06,16,12,42,16.70
2020,06,16,12,43,16.70
2020,06,16,12,44,16.80
2020,06,16,12,45,16.80
2020,06,16,12,46,16.80
2020,06,16,12,47,16.70
2020,06,16,12,48,16.70
2020,06,16,12,49,16.60
2020,06,16,12,50,16.70
2020,06,16,12,51,16.70
2020,06,16,12,52,16.60
2020,06,16,12,53,16.60
2020,06,16,12,54,16.50
2020,06,16,12,55,16.40
2020,06,16,12,56,16.30
2020,06,16,12,57,16.30
2020,06,16,12,58,16.30
2020,06,16,12,59,16.40
2020,06,16,13,00,16.50
2020,06,16,13,01,16.50
2020,06,16,13,02,16.50
2020,06,16,13,03,16.60
2020,06,16,13,04,16.70
2020,06,16,13,05,16.80
2020,06,16,13,06,16.70
2020,06,16,13,07,16.70
2020,06,16,13,08,16.60
2020,06,16,13,09,16.50
2020,06,16,13,10,16.50
2020,06,16,13,11,16.50
2020,06,16,13,12,16.50
2020,06,16,13,13,16.50
2020,06,16,13,14,16.60
2020,06,16,13,15,16.60
2020,06,16,13,16,16.60
2020,06,16,13,17,16.60
2020,06,16,13,18,16.60
2020,06,16,13,19,16.60
2020,06,16,13,20,16.60
2020,06,16,13,21,16.50
2020,06,16,13,22,16.60
2020,06,16,13,23,16.60
2020,06,16,13,24,16.60
2020,06,16,13,25,16.60
2020,06,16,13,26,16.60
2020,06,16,13,27,16.60
2020,06,16,13,28,16.70
2020,06,16,13,29,16.80
2020,06,16,13,30,16.80
2020,06,16,13,31,16.80
2020,06,16,13,32,16.90
2020,06,16,13,33,16.80
2020,06,16,13,34,16.80
2020,06,16,13,35,16.80
2020,06,16,13,36,16.70
2020,06,16,13,37,16.70
2020,06,16,13,38,16.70
2020,06,16,13,39,16.70
2020,06,16,13,40,16.80
2020,06,16,13,41,16.80
2020,06,16,13,42,16.90
2020,06,16,13,43,17.00
2020,06,16,13,44,17.20
2020,06,16,13,45,17.30
2020,06,16,13,46,17.30
2020,06,16,13,47,17.40
2020,06,16,13,48,17.40
2020,06,16,13,49,17.60
2020,06,16,13,50,17.60
2020,06,16,13,51,17.70
2020,06,16,13,52,17.80
2020,06,16,13,53,17.80
2020,06,16,13,54,17.80
2020,06,16,13,55,17.70
2020,06,16,13,56,17.70
2020,06,16,13,57,17.60
2020,06,16,13,58,17.60
2020,06,16,13,59,17.60
2020,06,16,14,00,17.60
2020,06,16,14,01,17.50
2020,06,16,14,02,17.40
2020,06,16,14,03,17.30
2020,06,16,14,04,17.30
2020,06,16,14,05,17.30
2020,06,16,14,06,17.30
2020,06,16,14,07,17.30
2020,06,16,14,08,17.30
2020,06,16,14,09,17.40
2020,06,16,14,10,17.50
2020,06,16,14,11,17.60
2020,06,16,14,12,17.70
2020,06,16,14,13,17.70
2020,06,16,14,14,17.80
2020,06,16,14,15,17.90
2020,06,16,14,16,18.10
2020,06,16,14,17,18.20
2020,06,16,14,18,18.30
2020,06,16,14,19,18.40
2020,06,16,14,20,18.40
2020,06,16,14,21,18.40
2020,06,16,14,22,18.40
2020,06,16,14,23,18.40
2020,06,16,14,24,18.40
2020,06,16,14,25,18.40
2020,06,16,14,26,18.40
2020,06,16,14,27,18.40
2020,06,16,14,28,18.50
2020,06,16,14,29,18.60
2020,06,16,14,30,18.70
2020,06,16,14,31,18.80
2020,06,16,14,32,18.90
2020,06,16,14,33,19.00
2020,06,16,14,34,19.10
2020,06,16,14,35,19.20
2020,06,16,14,36,19.30
2020,06,16,14,37,19.30
2020,06,16,14,38,19.40
2020,06,16,14,39,19.50
2020,06,16,14,40,19.50
2020,06,16,14,41,19.50
2020,06,16,14,42,19.30
2020,06,16,14,43,19.30
2020,06,16,14,44,19.20
2020,06,16,14,45,19.10
2020,06,16,14,46,19.10
2020,06,16,14,47,19.20
2020,06,16,14,48,19.10
2020,06,16,14,49,19.10
2020,06,16,14,50,19.10
2020,06,16,14,51,19.20
2020,06,16,14,52,19.10
2020,06,16,14,53,19.10
2020,06,16,14,54,19.10
2020,06,16,14,55,19.10
2020,06,16,14,56,19.10
2020,06,16,14,57,19.20
2020,06,16,14,58,19.30
2020,06,16,14,59,19.60
2020,06,16,15,00,19.70
2020,06,16,15,01,19.90
2020,06,16,15,02,20.10
2020,06,16,15,03,20.10
2020,06,16,15,04,20.20
2020,06,16,15,05,20.20
2020,06,16,15,06,20.20
2020,06,16,15,07,20.20
2020,06,16,15,08,20.20
2020,06,16,15,09,20.00
2020,06,16,15,10,19.80
2020,06,16,15,11,19.70
2020,06,16,15,12,19.60
2020,06,16,15,13,19.50
2020,06,16,15,14,19.50
2020,06,16,15,15,19.50
2020,06,16,15,16,19.60
2020,06,16,15,17,19.70
2020,06,16,15,18,19.80
2020,06,16,15,19,19.90
2020,06,16,15,20,19.90
2020,06,16,15,21,19.90
2020,06,16,15,22,19.90
2020,06,16,15,23,19.90
2020,06,16,15,24,19.90
2020,06,16,15,25,20.00
2020,06,16,15,26,20.10
2020,06,16,15,27,20.20
2020,06,16,15,28,20.10
2020,06,16,15,29,20.00
2020,06,16,15,30,19.80
2020,06,16,15,31,19.60
2020,06,16,15,32,19.50
2020,06,16,15,33,19.40
2020,06,16,15,34,19.40
2020,06,16,15,35,19.50
2020,06,16,15,36,19.50
2020,06,16,15,37,19.50
2020,06,16,15,38,19.50
2020,06,16,15,39,19.50
2020,06,16,15,40,19.40
2020,06,16,15,41,19.50
2020,06,16,15,42,19.50
2020,06,16,15,43,19.60
2020,06,16,15,44,19.80
2020,06,16,15,45,19.90
2020,06,16,15,46,20.10
2020,06,16,15,47,20.20
2020,06,16,15,48,20.40
2020,06,16,15,49,20.50
2020,06,16,15,50,20.60
2020,06,16,15,51,20.70
2020,06,16,15,52,20.70
2020,06,16,15,53,20.70
2020,06,16,15,54,20.70
2020,06,16,15,55,20.70
2020,06,16,15,56,20.80
2020,06,16,15,57,20.90
2020,06,16,15,58,21.00
2020,06,16,15,59,21.00
2020,06,16,16,00,21.10
2020,06,16,16,01,21.00
2020,06,16,16,02,20.90
2020,06,16,16,03,21.00
2020,06,16,16,04,21.00
2020,06,16,16,05,21.00
2020,06,16,16,06,21.00
2020,06,16,16,07,20.90
2020,06,16,16,08,20.80
2020,06,16,16,09,20.60
2020,06,16,16,10,20.50
2020,06,16,16,11,20.40
2020,06,16,16,12,20.40
2020,06,16,16,13,20.40
2020,06,16,16,14,20.60
2020,06,16,16,15,20.70
2020,06,16,16,16,20.70
2020,06,16,16,17,20.60
2020,06,16,16,18,20.70
2020,06,16,16,19,20.70
2020,06,16,16,20,20.70
2020,06,16,16,21,20.70
2020,06,16,16,22,20.70
2020,06,16,16,23,20.80
2020,06,16,16,24,20.80
2020,06,16,16,25,20.70
2020,06,16,16,26,20.70
2020,06,16,16,27,20.70
2020,06,16,16,28,20.50
2020,06,16,16,29,20.40
2020,06,16,16,30,20.20
2020,06,16,16,31,20.10
2020,06,16,16,32,20.10
2020,06,16,16,33,20.00
2020,06,16,16,34,19.90
2020,06,16,16,35,19.90
2020,06,16,16,36,19.80
2020,06,16,16,37,19.70
2020,06,16,16,38,19.70
2020,06,16,16,39,19.70
2020,06,16,16,40,19.70
2020,06,16,16,41,19.80
2020,06,16,16,42,20.00
2020,06,16,16,43,20.10
2020,06,16,16,44,20.10
2020,06,16,16,45,20.10
2020,06,16,16,46,20.10
2020,06,16,16,47,20.10
2020,06,16,16,48,20.00
2020,06,16,16,49,19.90
2020,06,16,16,50,19.90
2020,06,16,16,51,19.90
2020,06,16,16,52,20.00
2020,06,16,16,53,20.10
2020,06,16,16,54,20.10
2020,06,16,16,55,20.20
2020,06,16,16,56,20.20
2020,06,16,16,57,20.20
2020,06,16,16,58,20.30
2020,06,16,16,59,20.30
2020,06,16,17,00,20.30
2020,06,16,17,01,20.30
2020,06,16,17,02,20.30
2020,06,16,17,03,20.30
2020,06,16,17,04,20.30
2020,06,16,17,05,20.40
2020,06,16,17,06,20.40
2020,06,16,17,07,20.30
2020,06,16,17,08,20.40
2020,06,16,17,09,20.40
2020,06,16,17,10,20.40
2020,06,16,17,11,20.40
2020,06,16,17,12,20.40
2020,06,16,17,13,20.40
2020,06,16,17,14,20.40
2020,06,16,17,15,20.40
2020,06,16,17,16,20.40
2020,06,16,17,17,20.50
2020,06,16,17,18,20.50
2020,06,16,17,19,20.60
2020,06,16,17,20,20.60
2020,06,16,17,21,20.60
2020,06,16,17,22,20.60
2020,06,16,17,23,20.60
2020,06,16,17,24,20.60
2020,06,16,17,25,20.70
2020,06,16,17,26,20.80
2020,06,16,17,27,20.80